Simultaneous Nadir Overpasses (SNOs) Predictions

Prediction of SNOs between GOES-16 and NOAA-20 Satellite Orbit:

Table of predicted SNOs for the next 14.0 days since TLE Epoch: 1/11/2019
Index Date Time (GOES-16) GOES-16 Lat,Lon NOAA-20 Lat,Lon Distance(km) Time Diff (sec)
1 01/12/2019 18:29:12 -0.01, -75.19 -0.14, -75.72 59.75 80
2 01/13/2019 18:07:48 -0.01, -75.19 0.90, -71.19 456.52 80
3 01/15/2019 06:32:16 0.02, -75.20 0.31, -76.46 143.53 80
4 01/16/2019 06:10:53 0.01, -75.20 -0.73, -71.93 372.87 80
5 01/17/2019 18:35:30 -0.02, -75.20 -0.46, -77.23 231.47 80
6 01/18/2019 18:14:06 -0.02, -75.20 0.52, -72.70 285.05 80
7 01/20/2019 06:38:35 0.02, -75.21 0.63, -77.97 314.67 80
8 01/21/2019 06:17:11 0.02, -75.21 -0.35, -73.44 201.95 80
9 01/22/2019 18:41:48 -0.03, -75.22 -0.83, -78.74 401.84 80
10 01/23/2019 18:20:24 -0.02, -75.23 0.21, -74.22 115.21 80
11 01/25/2019 06:44:53 0.03, -75.25 1.00, -79.48 483.21 80




NCC Satellite Simultaneous Nadir Overpasses (SNOs) Prediction Service
